This demonstration page uses our WeatherBlox Daily Observations layout. Learn more.

Left ArrowRight Arrow

34.74481, -87.66753

Hourly Observations for April 8, 2017

Temp ( °F °C ) Dew Point ( °F °C ) Humidity (%) Winds ( mph kmh ) Pressure ( in mb ) Visibility ( mi km ) Precip ( " mm )
12:53 am 00:53 Clear 43 6.1 33 0.6 68 68 Calm 30.12 1020 10 16 0.00 0.00
1:53 am 01:53 Clear 41 5 33 0.6 73 73 WNW 3 6 30.12 1020 10 16 0.00 0.00
2:53 am 02:53 Clear 40 4.4 34 1.1 79 79 S 3 6 30.12 1020 10 16 0.00 0.00
3:53 am 03:53 Clear 38 3.3 34 1.1 86 86 Calm 30.13 1020 10 16 0.00 0.00
4:53 am 04:53 Clear 37 2.8 33 0.6 86 86 Calm 30.14 1021 10 16 0.00 0.00
5:53 am 05:53 Clear 38 3.3 33 0.6 83 83 Calm 30.16 1021 10 16 0.00 0.00
6:53 am 06:53 Sunny 37 2.8 34 1.1 89 89 Calm 30.18 1022 10 16 0.00 0.00
7:53 am 07:53 Sunny 43 6.1 37 2.8 80 80 Calm 30.20 1023 10 16 0.00 0.00
8:53 am 08:53 Sunny 50 10 40 4.4 68 68 Calm 30.19 1022 10 16 0.00 0.00
9:53 am 09:53 Sunny 57 13.9 36 2.2 45 45 VRB 3 6 30.19 1022 10 16 0.00 0.00
10:53 am 10:53 Sunny 61 16.1 32 0 34 34 Calm 30.18 1022 10 16 0.00 0.00
11:53 am 11:53 Sunny 65 18.3 35 1.7 33 33 NW 3 6 30.17 1022 10 16 0.00 0.00
12:53 pm 12:53 Sunny 67 19.4 33 0.6 28 28 ESE 6 9 30.15 1021 10 16 0.00 0.00
1:53 pm 13:53 Sunny 68 20 30 -1.1 24 24 SSW 3 6 30.12 1020 10 16 0.00 0.00
2:53 pm 14:53 Sunny 69 20.6 28 -2.2 22 22 VRB 5 7 30.10 1019 10 16 0.00 0.00
3:53 pm 15:53 Sunny 71 21.7 31 -0.6 23 23 Calm 30.07 1018 10 16 0.00 0.00
4:53 pm 16:53 Sunny 71 21.7 30 -1.1 22 22 E 6 9 30.06 1018 10 16 0.00 0.00
5:53 pm 17:53 Sunny 70 21.1 33 0.6 26 26 E 5 7 30.04 1017 10 16 0.00 0.00
6:53 pm 18:53 Sunny 64 17.8 33 0.6 32 32 E 6 9 30.03 1017 10 16 0.00 0.00
7:53 pm 19:53 Clear 58 14.4 35 1.7 42 42 E 6 9 30.04 1017 10 16 0.00 0.00
8:53 pm 20:53 Clear 56 13.3 34 1.1 44 44 ESE 6 9 30.04 1017 10 16 0.00 0.00
9:53 pm 21:53 Clear 54 12.2 34 1.1 47 47 Calm 30.06 1018 10 16 0.00 0.00
10:53 pm 22:53 Clear 50 10 37 2.8 61 61 SSE 3 6 30.05 1018 10 16 0.00 0.00
11:53 pm 23:53 Clear 51 10.6 34 1.1 52 52 SE 6 9 30.05 1018 10 16 0.00 0.00

Powered by AerisWeather